Zurück zum Katalog

COSMOS 2499 DEB

AktivPO
NORAD 49931·DEBRIS·🇷🇺 Russia

Gestartet May 23, 2014 von Plesetsk Cosmodrome

Loading…

Nächste Überflüge (nächste 24 Stunden)

TLE

AktuellSource: Space-Track

Epoche: Sep 14, 2026, 13:09 UTC

1 49931U 14028N   26257.54824638  .00002394  00000-0  73697-2 0  9995
2 49931  82.5391 192.8629 0271272  83.1297 280.0590 12.93313603229406

Verfolge COSMOS 2499 DEB in Echtzeit mit AllMySat

Download on the App Store